STARLINK-1235 (45232 NORAD) Tracking and Keplerian Element Data

This shows tracking and keplerian element data for the satellite.

Feedback or suggestion? Click here.




ElementValue
Catalog45232
NameSTARLINK-1235
Epoch Orbit2239
Epoch Day190.25001157
Epoch Year2020
RAAN301.1717
Inclination53.0015
Eccentricity0.0001183
Argument of Perigee98.7557
Mean Anonmoly173.5341
Mean Motion15.05572559
Decay Rate0.00054702
L11 45232U 20012BG 20190.25001157 .00054702 00000-0 37452-2 0 9995
L22 45232 53.0015 301.1717 0001183 98.7557 173.5341 15.05572559 22390

Live tracking and technical data element details for STARLINK-1235 (NORAD 45232). STARLINK-1235 can be tracked NOW for your location showing map with azimuth and elevation plus other details from your city location.

Track the satellite on the map from your city or location and see movement details for azimuth, elevation, latitude, longitude, range, height, and movement on the map or in text.







IsCatalogInMostPopularTable: catalog: 45232, numindb: 26
Update: records affected: 1



GetName: 45232 STARLINK-1235

Hit Count: updated at: Thu, 09 Jul 2020 00:38:07 GMT